Regional Weather Roundup
Issued by NWS

Home | Current Version | Previous Version | Text Only | Print | Product List | Glossary On
Versions: 1 2 3 4 5 6 7 8 9 10 11 12 13 14 15 16 17 18 19 20 21 22 23 24 25 26 27 28 29 30
000
ASUS45 KBOU 292107
RWRCO

WEATHER ROUNDUP FOR COLORADO
NATIONAL WEATHER SERVICE DENVER/BOULDER CO
300 PM MDT WED OCT 29 2014

NOTE: "FAIR" INDICATES FEW OR NO CLOUDS BELOW 12000 FEET WITH NO
SIGNIFICANT WEATHER AND/OR OBSTRUCTIONS TO VISIBILITY.

COZ001>005-013-030-031-292200-
...NORTHWEST COLORADO...

CITY           SKY/WX    TMP DP  RH WIND       PRES   REMARKS
CRAIG          SUNNY     61  21  21 W17       30.25F
HAYDEN         SUNNY     57  19  23 W16       30.25F
MEEKER         SUNNY     61  20  20 W13G21    30.25F
MOUNT WERNER   NOT AVBL
STEAMBOAT SPGS CLOUDY    54  21  27 CALM      30.26F
WALDEN         MOSUNNY   50  19  29 SW15G21   30.28F
$$

COZ006>008-011-292200-
...WEST CENTRAL VALLEYS...

CITY           SKY/WX    TMP DP  RH WIND       PRES   REMARKS
GRAND JUNCTION SUNNY     62  13  14 NW6       30.25F
MONTROSE       SUNNY     62  18  18 N6        30.28F
EAGLE          SUNNY     61  19  20 SW23G36   30.27F
RIFLE          SUNNY     61   9  12 CALM      30.25F
DELTA          SUNNY     65  12  12 SW7       30.26F
NUCLA          SUNNY     63  10  13 CALM      30.32F
$$

COZ017>023-064>068-292200-
...SOUTHWEST COLORADO...

CITY           SKY/WX    TMP DP  RH WIND       PRES   REMARKS
DURANGO        SUNNY     63  18  17 S12       30.28F
CORTEZ         SUNNY     66  16  14 SW13G18   30.28F
PAGOSA SPRINGS SUNNY     60   9  13 SW9       30.32S
TELLURIDE      SUNNY     56  13  18 W10       30.41F
WOLF CREEK PAS SUNNY     43  10  26 SW16G25   30.49S
$$

COZ009-010-012-014-032>034-037-058>063-292200-
...CENTRAL COLORADO...

CITY           SKY/WX    TMP DP  RH WIND       PRES   REMARKS
ASPEN          SUNNY     59  17  19 VRB7      30.29F
BUENA VISTA    SUNNY     64   8  11 W20G25    30.24S
COPPER MTN     SUNNY     41  10  28 W21G36    30.45S
BERTHOUD PASS  FAIR      32  28  86 W30G38    30.42F WCI  18
COTTONWOOD PAS SUNNY     55  -4   8 W14G25    30.35S
GUNNISON       SUNNY     57  18  21 S6        30.32F
KREMMLING      SUNNY     59  14  17 SW16        N/A
LEADVILLE      SUNNY     50  11  20 NW10G21   30.35F
MONARCH PASS   SUNNY     39  12  33 SW29G36   30.56S
SALIDA         SUNNY     66  10  11 SW21      30.30F
SUNLIGHT       SUNNY     46  18  31 SW3       30.45F
WILKERSON PASS NOT AVBL
$$

COZ069>075-292200-
...SAN LUIS VALLEY/SANGRE DE CRISTO MOUNTAINS...

CITY           SKY/WX    TMP DP  RH WIND       PRES   REMARKS
ALAMOSA        SUNNY     60   6  11 CALM      30.28F
LA VETA PASS   SUNNY     52  12  20 S10G22    30.36S
SAGUACHE       SUNNY     63   9  12 N16G22    30.29F
$$

COZ035-036-038>040-292200-
...NORTHERN COLORADO FRONT RANGE...

CITY           SKY/WX    TMP DP  RH WIND       PRES   REMARKS
DENVER INTL AP MOSUNNY   70  16  12 NW22      30.09F
DMNS CITY PARK   N/A     71  16  12 W14G21    30.08F
AURORA         MOSUNNY   68  15  13 NW5       30.12S
FRONT RANGE AP MOSUNNY   72  19  14 W15       30.11F
ERIE MUNI ARPT SUNNY     72  13  10 W13G21    30.08F
BOULDER MUN AP SUNNY     70  19  14 W17G30    30.09S
CENTENNIAL     MOSUNNY   69  12  11 NW8       30.11F
BROOMFIELD     MOSUNNY   70  19  14 W26G32    30.11S
FORT COLLINS   SUNNY     72  23  16 CALM      30.09F
LONGMONT       SUNNY     74  19  12 E3        30.09F
$$

COZ041-046-047-076>085-087-088-292200-
...PIKES PEAK/PALMER DIVIDE AND SOUTHERN FOOTHILLS...

CITY           SKY/WX    TMP DP  RH WIND       PRES   REMARKS
COLO. SPRINGS  MOSUNNY   66  12  12 S3        30.14F
A. F. ACADEMY  SUNNY     65  10  11 S7        30.14F
ELLICOTT       SUNNY     65  11  12 CALM      30.13F
FALCON         SUNNY     65  12  12 SE7       30.17F
FORT CARSON    SUNNY     68  16  13 S3        30.11F
LIMON          SUNNY     69  11  10 W7        30.10F
MONUMENT HILL  SUNNY     64  12  13 NW5       30.15F
TRINIDAD       SUNNY     70  14  11 E8        30.12F
$$

COZ042>045-048>051-090-091-292200-
...NORTHEAST COLORADO...

CITY           SKY/WX    TMP DP  RH WIND       PRES   REMARKS
GREELEY ARPT   SUNNY     68  18  14 SW3       30.08F
AKRON          SUNNY     70  14  11 W16G22    30.06F
BURLINGTON     SUNNY     71  17  12 W6        30.07F
WRAY           SUNNY     76  16  10 S8        30.03F
STERLING       SUNNY     73  23  15 W14       30.02F
HOLYOKE        SUNNY     73  19  13 SW12G22   30.02F
FORT MORGAN    SUNNY     70  16  12 W9        30.07F
$$

COZ086-089-092>099-292200-
...SOUTHEAST COLORADO...

CITY           SKY/WX    TMP DP  RH WIND       PRES   REMARKS
PUEBLO         SUNNY     73  12   9 SE6       30.06F
LA JUNTA       SUNNY     72  17  12 S7        30.07F
LAMAR          SUNNY     70  24  17 CALM      30.05F
SPRINGFIELD      N/A     71  23  16 S7        30.09F
$$



USA.gov is the U.S. government's official web portal to all federal, state and local government web resources and services.